This demonstration page uses our WeatherBlox Daily Observations layout. Learn more.

Left ArrowRight Arrow

36.19886, -115.1175

Hourly Observations for May 16, 2020

Temp ( °F °C ) Dew Point ( °F °C ) Humidity (%) Winds ( mph kmh ) Pressure ( in mb ) Visibility ( mi km ) Precip ( " mm )
12:53 am 00:53 Clear 76 24.4 34 1.1 22 22 NNW 7 11 29.80 1009 10 16 N/A
1:53 am 01:53 Clear 74 23.3 34 1.1 23 23 NNW 5 7 29.80 1009 10 16 N/A
2:53 am 02:53 Clear 73 22.8 37 2.8 27 27 N N/A 29.80 1009 10 16 N/A
3:53 am 03:53 Clear 72 22.2 37 2.8 28 28 W 5 7 29.80 1009 10 16 N/A
4:53 am 04:53 Clear 72 22.2 33 0.6 24 24 NNW 3 6 29.81 1010 10 16 N/A
5:53 am 05:53 Sunny 71 21.7 33 0.6 25 25 NNW 3 6 29.83 1010 10 16 N/A
6:53 am 06:53 Sunny 76 24.4 33 0.6 21 21 N 9 15 29.85 1011 10 16 N/A
7:53 am 07:53 Sunny 79 26.1 34 1.1 20 20 N N/A 29.86 1011 10 16 N/A
8:53 am 08:53 Sunny 81 27.2 33 0.6 18 18 VRB 5 7 29.87 1012 10 16 N/A
9:53 am 09:53 Sunny 83 28.3 31 -0.6 15 15 S 5 7 29.87 1012 10 16 N/A
10:53 am 10:53 Sunny 87 30.6 32 undefined 14 14 VRB 5 7 29.86 1011 10 16 N/A
11:53 am 11:53 Sunny 88 31.1 33 0.6 14 14 E 7 11 29.85 1011 10 16 N/A
12:53 pm 12:53 Sunny 90 32.2 34 1.1 14 14 VRB 3 6 29.83 1010 10 16 N/A
1:53 pm 13:53 Sunny 91 32.8 33 0.6 13 13 VRB 5 7 29.80 1009 10 16 N/A
2:53 pm 14:53 Sunny 92 33.3 33 0.6 12 12 SSE 9 15 29.78 1008 10 16 N/A
3:53 pm 15:53 Sunny 93 33.9 34 1.1 12 12 SSE 12 19 29.75 1007 10 16 N/A
4:53 pm 16:53 Sunny 93 33.9 34 1.1 12 12 SSE 13 20 29.73 1007 10 16 N/A
5:53 pm 17:53 Sunny 93 33.9 34 1.1 12 12 ESE 9 15 29.72 1007 10 16 N/A
6:53 pm 18:53 Sunny 92 33.3 34 1.1 13 13 ESE 16 26 29.71 1006 10 16 N/A
7:53 pm 19:53 Clear 90 32.2 35 1.7 14 14 ESE 9 15 29.71 1006 10 16 N/A
8:53 pm 20:53 Clear 88 31.1 34 1.1 15 15 SE 10 17 29.71 1006 10 16 N/A
9:53 pm 21:53 Clear 87 30.6 36 2.2 16 16 SSW 7 11 29.73 1007 10 16 N/A
10:53 pm 22:53 Clear 85 29.4 36 2.2 17 17 S 8 13 29.74 1007 10 16 N/A
11:53 pm 23:53 Clear 84 28.9 34 1.1 17 17 S 7 11 29.73 1007 10 16 N/A

Powered by AerisWeather